Home   Weather   Behbahan   Past weeks

Flag for Iran Past Weather in Behbahan, Iran — Yesterday and Last 2 Weeks

Now
68 °F

Sunny.


Feels Like: 68 °F
Forecast: 65 / 106 °F
Wind: No wind

Location: Gach Saran Du Gunbadan

Current Time: Sep 27, 2016 at 7:13:36 AM

Latest Report: Sep 27, 2016 at 6:30 AM


Visibility: 10 mi

Pressure: 29.98 "Hg

Humidity: 21%

Dew Point: 27 °F

Location of BehbahanLocation

Past Weather in Behbahan — Graph

°F

Behbahan Temperature Yesterday

Maximum temperature yesterday: 102 °F (at 12:30 PM)
Minimum temperature yesterday: 64 °F (at 4:30 AM)
Average temperature yesterday: 85 °F

High & Low Weather Summary for the Past Weeks

 TemperatureHumidityPressure
High106 °F (Sep 12, 2:30 PM)50% (Sep 17, 6:30 AM)30.21 "Hg (Sep 17, 6:30 AM)
Low63 °F (Sep 20, 6:30 AM)4% (Sep 21, 2:30 PM)29.71 "Hg (Sep 18, 7:30 PM)
Average87 °F17%29.85 "Hg
* Reported Sep 12 6:30 AM — Sep 27 5:30 AM, Behbahan, Weather by CustomWeather, © 2016

Note: Actual official high and low records may vary slightly from our data, if they occured in-between our weather recording intervals... More about our weather records

Advertising

Behbahan Weather History for the Previous 24 Hours

Scroll right to see more
 ConditionsComfort  
Time TempWeatherWind HumidityBarometerVisibility
5:30 AM
Tue, Sep 27
68 °FClear.No wind20%29.95 "Hg10 mi
4:30 AM70 °FClear.No wind21%29.95 "Hg10 mi
3:30 AM72 °FClear.No wind19%29.92 "Hg10 mi
2:30 AM73 °FClear.No wind17%29.92 "Hg10 mi
1:30 AM72 °FClear.No wind19%29.92 "Hg10 mi
12:30 AM75 °FClear.No wind16%29.95 "Hg10 mi
11:30 PM
Mon, Sep 26
77 °FClear.No wind14%29.95 "Hg10 mi
10:30 PM84 °FClear.No wind10%29.92 "Hg10 mi
9:30 PM86 °FClear.No wind10%29.92 "Hg10 mi
8:30 PM86 °FClear.7 mph9%29.92 "Hg10 mi
7:30 PM90 °FClear.No wind8%29.92 "Hg10 mi
6:30 PM93 °FClear.7 mph7%29.89 "Hg10 mi
5:30 PM97 °FSunny.No wind6%29.89 "Hg10 mi
4:30 PM99 °FSunny.12 mph6%29.86 "Hg10 mi
3:30 PM100 °FSunny.14 mph7%29.86 "Hg10 mi
2:30 PM100 °FSunny.16 mph7%29.83 "Hg10 mi
1:30 PM102 °FSunny.No wind6%29.86 "Hg10 mi
12:30 PM102 °FSunny.14 mph5%29.86 "Hg10 mi
11:30 AM100 °FSunny.No wind6%29.89 "Hg10 mi
10:30 AM99 °FSunny.5 mph6%29.92 "Hg10 mi
9:30 AM90 °FSunny.No wind9%29.92 "Hg10 mi
8:30 AM84 °FSunny.No wind13%29.92 "Hg10 mi
7:30 AM77 °FSunny.No wind18%29.89 "Hg10 mi
Weather by CustomWeather, © 2016

See weather overviewHow to use our weather pages